星链-5628 (STARLINK-5628 )

导读 | 豆包AI

STARLINK-5628是美国太空探索技术公司SpaceX于2023年2月2日发射的星链(Starlink)卫星,属于全球低轨卫星互联网星座组网计划的一员。星链旨在为全球偏远地区提供高速低延迟宽带互联网接入服务,这颗卫星加入后进一步扩大了星链星座规模,助力实现全球无缝网络覆盖目标,目前星链已在超60个国家提供服务。

Basic Information
目录编号:
55466
目录名称:
STARLINK-5628
国际标识:
2023-015T
轨道中心:
EARTH
卫星名称:
星链-5628
卫星全名:
星链-5628 (STARLINK-5628 )
卫星状态:
在轨 (已飞行1137 天)
发射日期:
2023-02-02 UTC
国别 :
美国 (US)
星等 :
--
Orbit Information
数据来源 国际轨道数据 AOE轨道数据
星历时间 2026-03-13T09:17:11+0800
2天前
查看轨道信息
2026-03-11T15:00:00+0800
4天前
查看轨道信息
半长轴 6937.172km 6937.195km
偏心率 0.0000061 0.000025
轨道倾角 43.005° 43.004°
近地点辐角 242.951° 190.356°
升交点赤经 307.398° 316.972°
平近点角 117.133° 348.225°
近地点 558.992km 558.884km
远地点 559.078km 559.232km
周期 95.837分钟 95.838分钟
每日圈数 15.025507 15.025432
Detailed Information
固有亮度:
5
最大亮度:
2.5
卫星平台:
Starlink v1.5
覆盖范围:
全球
运营商:
太空探索技术公司
运营商所在国:
美国
制造商(研发单位):
太空探索技术公司
制造商所在国:
美国
使用方式:
暂无
Satellite Introduction
星链(Starlink)计划是由太空探索技术公司(SpaceX)提出的一个巨型低轨卫星互联网星座项目,计划在2019年至2024年间在太空搭建由约1.2万颗卫星组成的“星链”网络,其中1584颗将部署在地球上空550千米处的近地轨道,并从2020年开始工作。该卫星仍在工作。
2D Orbit Map
3D Orbit Map
Orbit Altitude Analysis Chart
Orbit Inclination Analysis Chart
Orbit Comprehensive Analysis Chart
View Comprehensive Chart